カタログに戻る

SL-14 DEB

運用中PO
NORAD 45347·DEBRIS·🇷🇺 Russia

打ち上げ Aug 15, 1991 から Plesetsk Cosmodrome

Loading…

次のパス (今後24時間)

TLE

最新Source: Space-Track

元期: Sep 13, 2026, 10:46 UTC

1 45347U 91056CG  26256.44923086  .00006886  00000-0  42246-2 0  9999
2 45347  82.6336 302.3939 0107620  15.5588 344.8846 14.02751659328404

AllMySatでSL-14 DEBをリアルタイム追跡

Download on the App Store